Weather History for Montrose, CO

Change the Weather History Date:

Thursday, December 6, 2012

  Actual Average Record
Temperature  
Mean Temperature 44 °F 29 °F  
Max Temperature 51 °F 40 °F 51 °F (2012)
Min Temperature 37 °F 18 °F -4 °F (2013)
Degree Days  
Heating Degree Days 21 36  
Month to date heating degree days 134 212  
Since 1 July heating degree days 1276 1633  
Cooling Degree Days 0 0  
Month to date cooling degree days 0 0  
Year to date cooling degree days 906 643  
Moisture  
Dew Point 32 °F    
Average Humidity 62    
Maximum Humidity 79    
Minimum Humidity 45    
Precipitation  
Precipitation T in 0.02 in 0.23 in (1996)
Month to date precipitation T 0.14  
Year to date precipitation 5.48 10.79  
Sea Level Pressure  
Sea Level Pressure 29.95 in    
Wind  
Wind Speed 3 mph (SE)    
Max Wind Speed 9 mph    
Max Gust Speed 10 mph    
Visibility 10 miles    
Events Rain    
T = Trace of Precipitation, MM = Missing Value Source: NWS Daily Summary

Daily Weather History Graph

Daily Weather History Graph

Search for Another Location

Airport:

Trip Planner

Search our weather history database for the weather conditions in past years. The results will help you decide how hot, cold, wet, or windy it might be!

Date:

Astronomy

Dec. 06, 2012 Rise Set
Actual Time 7:15 AM MST 4:50 PM MST
Civil Twilight 6:45 AM MST 5:19 PM MST
Nautical Twilight 6:12 AM MST 5:53 PM MST
Astronomical Twilight 5:40 AM MST 6:25 PM MST
Moon No Moon Rise 12:13 PM MST (12/6)
Length of Visible Light 10h 34m
Length of Day
9h 35m
Waning Gibbous, 48% of the Moon is Illuminated
Dec 6
Waning Gibbous
Dec 13
New
Dec 19
First Quarter
Dec 28
Full
Jan 4
Last Quarter

Hourly Weather History & Observations

Time (MST) Temp. Windchill Dew Point Humidity Pressure Visibility Wind Dir Wind Speed Gust Speed Precip Events Conditions
12:53 AM 39.9 °F 36.7 °F 23.0 °F 51% 30.01 in 10.0 mi SE 4.6 mph - N/A   Overcast
1:53 AM 39.9 °F - 24.1 °F 53% 29.99 in 10.0 mi Calm Calm - N/A   Overcast
2:53 AM 39.9 °F 35.1 °F 23.0 °F 51% 29.98 in 10.0 mi SSE 6.9 mph - N/A   Overcast
3:53 AM 43.0 °F - 23.0 °F 45% 29.96 in 10.0 mi Calm Calm - 0.00 in   Overcast
4:53 AM 39.9 °F 36.7 °F 28.9 °F 65% 29.98 in 10.0 mi SSE 4.6 mph - 0.00 in Rain Light Rain
5:53 AM 43.0 °F 39.5 °F 36.0 °F 76% 29.98 in 10.0 mi SE 5.8 mph - 0.00 in Rain Light Rain
6:53 AM 41.0 °F 38.0 °F 36.0 °F 82% 30.00 in 10.0 mi SE 4.6 mph - 0.00 in   Overcast
7:53 AM 42.1 °F 37.7 °F 36.0 °F 79% 30.00 in 10.0 mi ESE 6.9 mph - 0.00 in   Overcast
8:53 AM 41.0 °F - 34.0 °F 76% 30.01 in 10.0 mi Calm Calm - N/A   Partly Cloudy
9:53 AM 42.1 °F - 32.0 °F 67% 30.01 in 10.0 mi Calm Calm - N/A   Partly Cloudy
10:53 AM 45.0 °F - 36.0 °F 71% 29.99 in 10.0 mi Calm Calm - N/A   Mostly Cloudy
11:53 AM 46.9 °F - 36.0 °F 66% 29.96 in 10.0 mi Calm Calm - N/A   Clear
12:53 PM 48.9 °F - 35.1 °F 59% 29.92 in 10.0 mi Calm Calm - N/A   Clear
1:53 PM 50.0 °F - 35.1 °F 57% 29.91 in 10.0 mi North 3.5 mph - N/A   Mostly Cloudy
2:53 PM 50.0 °F - 34.0 °F 54% 29.90 in 10.0 mi Calm Calm - N/A   Scattered Clouds
3:53 PM 48.9 °F - 30.9 °F 50% 29.88 in 10.0 mi NW 5.8 mph - N/A   Mostly Cloudy
4:53 PM 46.9 °F - 30.9 °F 54% 29.88 in 10.0 mi Calm Calm - N/A   Overcast
5:53 PM 45.0 °F 43.5 °F 33.1 °F 63% 29.89 in 10.0 mi East 3.5 mph - N/A   Overcast
6:53 PM 44.1 °F - 36.0 °F 73% 29.91 in 10.0 mi Calm Calm - N/A   Overcast
7:53 PM 43.0 °F 40.3 °F 35.1 °F 74% 29.91 in 10.0 mi SSE 4.6 mph - N/A   Overcast
8:53 PM 41.0 °F 37.1 °F 35.1 °F 79% 29.92 in 10.0 mi South 5.8 mph - N/A   Overcast
9:53 PM 41.0 °F 38.0 °F 35.1 °F 79% 29.91 in 10.0 mi SE 4.6 mph - N/A   Overcast
10:53 PM 39.0 °F 36.8 °F 33.1 °F 79% 29.92 in 10.0 mi SW 3.5 mph - N/A   Overcast
11:53 PM 37.0 °F - 32.0 °F 82% 29.93 in 10.0 mi Calm Calm - N/A   Partly Cloudy